SB KEPS @ AMSAT $ORB10245.O Orbital Elements 10245.OSCAR
HR AMSAT ORBITAL ELEMENTS FOR OSCAR SATELLITES FROM WA5QGD FORT WORTH,TX September 2, 2010 Send Subscribe/unsubscribe to KEPS at http://www.amsat.org/mailman/listinfo/keps BID: ORB10245.O TO ALL RADIO AMATEURS BT
Satellite: AO-07 Catalog number: 07530 Epoch time: 10244.57725897 Element set: 0869 Inclination: 101.4009 deg RA of node: 257.4793 deg Eccentricity: 0.0011966 Arg of perigee: 123.2328 deg Mean anomaly: 236.9890 deg Mean motion: 12.53579459 rev/day Decay rate: -2.7e-07 rev/day^2 Epoch rev: 63802 Checksum: 329
Satellite: FO-29 Catalog number: 24278 Epoch time: 10244.93958390 Element set: 0397 Inclination: 098.5165 deg RA of node: 063.4665 deg Eccentricity: 0.0349826 Arg of perigee: 284.8294 deg Mean anomaly: 071.4356 deg Mean motion: 13.52952080 rev/day Decay rate: 5.0e-08 rev/day^2 Epoch rev: 69348 Checksum: 351
Satellite: SO-33 Catalog number: 25509 Epoch time: 10245.70058623 Element set: 786 Inclination: 031.4342 deg RA of node: 070.1809 deg Eccentricity: 0.0354425 Arg of perigee: 247.6569 deg Mean anomaly: 108.6097 deg Mean motion: 14.28325373 rev/day Decay rate: -1.25e-06 rev/day^2 Epoch rev: 61914 Checksum: 304
Satellite: RS-22 Catalog number: 27939 Epoch time: 10245.65922830 Element set: 507 Inclination: 097.8804 deg RA of node: 107.8151 deg Eccentricity: 0.0013439 Arg of perigee: 170.1351 deg Mean anomaly: 190.0139 deg Mean motion: 14.63447412 rev/day Decay rate: 6.1e-07 rev/day^2 Epoch rev: 37028 Checksum: 287
Satellite: VO-52 Catalog number: 28650 Epoch time: 10245.18268040 Element set: 586 Inclination: 097.6844 deg RA of node: 295.5847 deg Eccentricity: 0.0027790 Arg of perigee: 026.7626 deg Mean anomaly: 333.5225 deg Mean motion: 14.81799950 rev/day Decay rate: 4.78e-06 rev/day^2 Epoch rev: 28809 Checksum: 352
Satellite: SO-67 Catalog number: 35870 Epoch time: 10245.81935444 Element set: 69 Inclination: 097.3246 deg RA of node: 292.8739 deg Eccentricity: 0.0002995 Arg of perigee: 155.7886 deg Mean anomaly: 328.7117 deg Mean motion: 15.21026404 rev/day Decay rate: 3.96e-06 rev/day^2 Epoch rev: 5325 Checksum: 334
Satellite: HO-68 Catalog number: 36122 Epoch time: 10245.77643856 Element set: 636 Inclination: 100.4624 deg RA of node: 305.3954 deg Eccentricity: 0.0007484 Arg of perigee: 157.5292 deg Mean anomaly: 202.6145 deg Mean motion: 13.16281663 rev/day Decay rate: -4.5e-07 rev/day^2 Epoch rev: 3442 Checksum: 292
/EX SB KEPS @ AMSAT $ORB10245.D Orbital Elements 10245.MICROS
HR AMSAT ORBITAL ELEMENTS FOR THE MICROSATS FROM WA5QGD FORT WORTH,TX September 2, 2010 Send Subscribe/unsubscribe to KEPS at http://www.amsat.org/mailman/listinfo/keps BID: ORB10245.D TO ALL RADIO AMATEURS BT
Satellite: UO-11 Catalog number: 14781 Epoch time: 10245.57882365 Element set: 329 Inclination: 098.0488 deg RA of node: 297.5243 deg Eccentricity: 0.0009195 Arg of perigee: 355.5622 deg Mean anomaly: 004.5521 deg Mean motion: 14.79829167 rev/day Decay rate: -1.6e-07 rev/day^2 Epoch rev: 42325 Checksum: 320
Satellite: AO-16 Catalog number: 20439 Epoch time: 10245.75469115 Element set: 984 Inclination: 098.3392 deg RA of node: 200.6368 deg Eccentricity: 0.0010246 Arg of perigee: 300.5820 deg Mean anomaly: 059.4350 deg Mean motion: 14.31872052 rev/day Decay rate: 5.0e-08 rev/day^2 Epoch rev: 7648 Checksum: 287
Satellite: LO-19 Catalog number: 20442 Epoch time: 10245.46050651 Element set: 893 Inclination: 098.3006 deg RA of node: 205.8439 deg Eccentricity: 0.0011017 Arg of perigee: 294.1552 deg Mean anomaly: 065.8470 deg Mean motion: 14.32101575 rev/day Decay rate: -9.4e-07 rev/day^2 Epoch rev: 7661 Checksum: 280
Satellite: AO-27 Catalog number: 22825 Epoch time: 10245.71782852 Element set: 616 Inclination: 098.4909 deg RA of node: 191.6835 deg Eccentricity: 0.0009153 Arg of perigee: 045.1854 deg Mean anomaly: 315.0061 deg Mean motion: 14.29306351 rev/day Decay rate: 1.7e-07 rev/day^2 Epoch rev: 88312 Checksum: 301
Satellite: IO-26 Catalog number: 22826 Epoch time: 10245.41943109 Element set: 354 Inclination: 098.4851 deg RA of node: 191.9652 deg Eccentricity: 0.0009702 Arg of perigee: 041.3555 deg Mean anomaly: 318.8361 deg Mean motion: 14.29563596 rev/day Decay rate: 2.6e-07 rev/day^2 Epoch rev: 88319 Checksum: 320
Satellite: GO-32 Catalog number: 25397 Epoch time: 10245.15551257 Element set: 273 Inclination: 098.3173 deg RA of node: 248.3758 deg Eccentricity: 0.0002040 Arg of perigee: 062.4510 deg Mean anomaly: 297.6873 deg Mean motion: 14.23183138 rev/day Decay rate: -1.67e-06 rev/day^2 Epoch rev: 63099 Checksum: 306
Satellite: NO-44 Catalog number: 26931 Epoch time: 10244.74061774 Element set: 0549 Inclination: 067.0533 deg RA of node: 006.7366 deg Eccentricity: 0.0005160 Arg of perigee: 269.2682 deg Mean anomaly: 090.7827 deg Mean motion: 14.29607916 rev/day Decay rate: -1.91e-06 rev/day^2 Epoch rev: 46569 Checksum: 323
Satellite: SO-50 Catalog number: 27607 Epoch time: 10245.20962927 Element set: 259 Inclination: 064.5569 deg RA of node: 122.5669 deg Eccentricity: 0.0039363 Arg of perigee: 042.8413 deg Mean anomaly: 317.5740 deg Mean motion: 14.71570651 rev/day Decay rate: -2.8e-07 rev/day^2 Epoch rev: 41371 Checksum: 306
Satellite: CO-55 Catalog number: 27844 Epoch time: 10245.07133855 Element set: 926 Inclination: 098.7104 deg RA of node: 252.9469 deg Eccentricity: 0.0009526 Arg of perigee: 315.4555 deg Mean anomaly: 044.5849 deg Mean motion: 14.20726485 rev/day Decay rate: 3.8e-07 rev/day^2 Epoch rev: 37200 Checksum: 319
Satellite: CO-57 Catalog number: 27848 Epoch time: 10245.53480324 Element set: 874 Inclination: 098.7157 deg RA of node: 252.5126 deg Eccentricity: 0.0009494 Arg of perigee: 318.2484 deg Mean anomaly: 041.7967 deg Mean motion: 14.20518085 rev/day Decay rate: 4.7e-07 rev/day^2 Epoch rev: 37202 Checksum: 321
Satellite: AO-51 Catalog number: 28375 Epoch time: 10244.47605718 Element set: 763 Inclination: 098.0681 deg RA of node: 233.6521 deg Eccentricity: 0.0082781 Arg of perigee: 225.8616 deg Mean anomaly: 133.5746 deg Mean motion: 14.40696783 rev/day Decay rate: 2.5e-07 rev/day^2 Epoch rev: 32449 Checksum: 323
Satellite: GENESAT1 Catalog number: 29655 Epoch time: 10216.61700559 Element set: 226 Inclination: 040.0059 deg RA of node: 067.3006 deg Eccentricity: 0.0005079 Arg of perigee: 297.8744 deg Mean anomaly: 064.7087 deg Mean motion: 16.44862838 rev/day Decay rate: 1.0637092e-01 rev/day^2 Epoch rev: 20777 Checksum: 320
Satellite: CP3 Catalog number: 31129 Epoch time: 10244.07249080 Element set: 0667 Inclination: 097.9353 deg RA of node: 279.5629 deg Eccentricity: 0.0102718 Arg of perigee: 359.2190 deg Mean anomaly: 000.8791 deg Mean motion: 14.52296897 rev/day Decay rate: 8.5e-07 rev/day^2 Epoch rev: 17887 Checksum: 335
Satellite: CO-65 Catalog number: 32785 Epoch time: 10245.28608097 Element set: 773 Inclination: 097.8899 deg RA of node: 309.1204 deg Eccentricity: 0.0015731 Arg of perigee: 037.2322 deg Mean anomaly: 322.9999 deg Mean motion: 14.81707737 rev/day Decay rate: 4.25e-06 rev/day^2 Epoch rev: 12690 Checksum: 337
Satellite: KKS-1 Catalog number: 33493 Epoch time: 10245.88173944 Element set: 815 Inclination: 098.0937 deg RA of node: 006.0728 deg Eccentricity: 0.0018680 Arg of perigee: 248.9508 deg Mean anomaly: 110.9700 deg Mean motion: 14.81081602 rev/day Decay rate: 4.00e-06 rev/day^2 Epoch rev: 8698 Checksum: 305
Satellite: SOHLA-1 Catalog number: 33496 Epoch time: 10244.83138231 Element set: 192 Inclination: 098.0632 deg RA of node: 352.9337 deg Eccentricity: 0.0006103 Arg of perigee: 328.6762 deg Mean anomaly: 031.4085 deg Mean motion: 14.69512557 rev/day Decay rate: 1.22e-06 rev/day^2 Epoch rev: 8613 Checksum: 281
Satellite: TISAT-1 Catalog number: 36799 Epoch time: 10245.72895719 Element set: 87 Inclination: 098.1414 deg RA of node: 305.6288 deg Eccentricity: 0.0016489 Arg of perigee: 122.1665 deg Mean anomaly: 238.1143 deg Mean motion: 14.80155481 rev/day Decay rate: 2.95e-06 rev/day^2 Epoch rev: 778 Checksum: 327
Satellite: STUDSAT Catalog number: 36801 Epoch time: 10245.34327518 Element set: 58 Inclination: 098.1445 deg RA of node: 305.1887 deg Eccentricity: 0.0015036 Arg of perigee: 112.0518 deg Mean anomaly: 248.2292 deg Mean motion: 14.79617248 rev/day Decay rate: 7.36e-06 rev/day^2 Epoch rev: 772 Checksum: 291
/EX SB KEPS @ AMSAT $ORB10245.W Orbital Elements 10245.WEATHER
HR AMSAT ORBITAL ELEMENTS FOR WEATHER SATELLITES FROM WA5QGD FORT WORTH,TX September 2, 2010 Send Subscribe/unsubscribe to KEPS at http://www.amsat.org/mailman/listinfo/keps BID: ORB10245.W TO ALL RADIO AMATEURS BT
Satellite: NOAA-10 Catalog number: 16969 Epoch time: 10244.69803470 Element set: 0187 Inclination: 098.6524 deg RA of node: 272.9323 deg Eccentricity: 0.0012429 Arg of perigee: 352.6337 deg Mean anomaly: 007.4678 deg Mean motion: 14.27425212 rev/day Decay rate: -3.4e-07 rev/day^2 Epoch rev: 24649 Checksum: 311
Satellite: NOAA-11 Catalog number: 19531 Epoch time: 10244.75325764 Element set: 0199 Inclination: 098.7676 deg RA of node: 332.4705 deg Eccentricity: 0.0010878 Arg of perigee: 292.8038 deg Mean anomaly: 067.1991 deg Mean motion: 14.14932896 rev/day Decay rate: -2.21e-06 rev/day^2 Epoch rev: 13196 Checksum: 329
Satellite: NOAA-12 Catalog number: 21263 Epoch time: 10244.85092336 Element set: 0692 Inclination: 098.7655 deg RA of node: 258.0014 deg Eccentricity: 0.0011807 Arg of perigee: 307.9852 deg Mean anomaly: 052.0254 deg Mean motion: 14.25651254 rev/day Decay rate: 2.6e-07 rev/day^2 Epoch rev: 00332 Checksum: 272
Satellite: MET-3/5 Catalog number: 21655 Epoch time: 10245.51650402 Element set: 903 Inclination: 082.5545 deg RA of node: 253.9954 deg Eccentricity: 0.0014073 Arg of perigee: 150.4030 deg Mean anomaly: 209.7893 deg Mean motion: 13.17026543 rev/day Decay rate: 5.1e-07 rev/day^2 Epoch rev: 91585 Checksum: 283
